Location: Apeadero de Los Molinos-Guadarrama
(40.7091°N, 4.0689°W)
Time: 11:49:16
(UTC+00:00)

Cosmos 1733 Rocket - Pass Details

Date: 14 May 2021
Orbit: 603 x 628 km, 82.5° (Epoch: 18 June)

Event Time Altitude Azimuth Distance (km) Brightness Sun altitude
Rises 22:11:02 0° 359° (N) 2,866 7.4 -24.1°
Reaches altitude 10° 22:13:22 10° 6° (N) 1,957 6.3 -24.3°
Enters shadow 22:16:47 39° 53° (NE) 917 3.9 -24.6°
